Regional Weather Roundup
Issued by NWS

Home | Current Version | Previous Version | Graphics & Text | Print | Product List | Glossary On
Versions: 1 2 3 4 5 6 7 8 9 10 11 12 13 14 15 16 17 18 19 20 21 22 23 24 25 26 27 28 29 30 31 32 33 34 35 36 37 38 39 40 41 42 43 44 45 46 47 48 49 50
681
ASUS44 KMEG 230910
RWRTN
TENNESSEE HOURLY STATE WEATHER ROUNDUP
NATIONAL WEATHER SERVICE MEMPHIS TN
400 AM CDT THU MAR 23 2017

TNZ002-004-019-021-049-052-054-088>092-231000-
WEST TENNESSEE

CITY           SKY/WX    TMP DP  RH WIND       PRES   REMARKS
MEMPHIS INTL   CLEAR     51  24  34 E10       30.24F
NWS MEMPHIS      N/A     48 N/A N/A MISG        N/A
JACKSON        CLEAR     45  26  47 E7        30.26F
DYERSBURG      CLOUDY    48  25  40 E5        30.28F
SOMERVILLE     CLOUDY    48  23  37 VRB3      30.23S
BOLIVAR        CLOUDY    46  25  42 E5        30.24F
PARIS          MOCLDY    39  21  48 E6        30.27F WCI  35
HUNTINGDON     CLOUDY    43  25  49 CALM      30.27R
SAVANNAH       CLOUDY    39  32  75 CALM      30.25F
$$

TNZ008-025-027-028-033-062-065-066-231000-
NORTH MIDDLE TENNESSEE

CITY           SKY/WX    TMP DP  RH WIND       PRES   REMARKS
NASHVILLE      CLEAR     40  24  53 NE6       30.30F
PORTLAND       CLEAR     34  25  69 CALM      30.31S
CLARKSVILLE    CLEAR     36  23  59 E7        30.31F WCI  30
SMYRNA         CLEAR     38  26  62 NW3       30.31F
COOKEVILLE     PTCLDY    36  32  87 CALM      30.27F
GALLATIN       CLEAR     37  23  56 N6        30.34R WCI  33
CROSSVILLE     MOCLDY    39  21  48 E3        30.29F
$$

TNZ061-075-076-078-094-096-097-231000-
SOUTH MIDDLE TENNESSEE

CITY           SKY/WX    TMP DP  RH WIND       PRES   REMARKS
FAYETTEVILLE   CLOUDY    45  27  49 NE5       30.26S
TULLAHOMA      CLOUDY    43  19  39 CALM      30.27F
WINCHESTER     CLOUDY    46  27  46 E6        30.27S
MCMINNVILLE    CLEAR     39  25  56 NE5       30.28F
COLUMBIA       CLOUDY    43  27  52 NE3       30.25F
SHELBYVILLE    CLOUDY    39  36  87 CALM      30.29F
$$

TNZ017-018-042-046-047-231000-
NORTHEAST TENNESSEE

CITY           SKY/WX    TMP DP  RH WIND       PRES   REMARKS
TRI CITIES     CLEAR     31  20  63 CALM      30.35S
ELIZABETHTON   MOCLDY    43  18  36 E10       30.35S
$$

TNZ012-013-036-069-073-074-231000-
CENTRAL EAST TENNESSEE

CITY           SKY/WX    TMP DP  RH WIND       PRES   REMARKS
KNOXVILLE      PTCLDY    41  21  44 NE6       30.31S
OAK RIDGE      CLEAR     42  19  39 NE5       30.33S
DOWNTOWN KNOXV CLOUDY    37  32  81 CALM      30.33S
GATLINBURG     CLEAR     34  25  69 CALM      30.32R
MORRISTOWN     PTCLDY    39  19  45 E3        30.30S
JACKSBORO      CLEAR     34  28  80 CALM      30.36S
$$

TNZ083-085-099-231000-
SOUTHEAST TENNESSEE

CITY           SKY/WX    TMP DP  RH WIND       PRES   REMARKS
CHATTANOOGA    CLEAR     46  24  42 CALM      30.32S
$$

SKY/WX REPORTED AS FAIR MEANS FEW OR NO CLOUDS BELOW
12 THOUSAND FEET.





USA.gov is the U.S. government's official web portal to all federal, state and local government web resources and services.